Date,TemperatureHighF,TemperatureAvgF,TemperatureLowF,DewpointHighF,DewpointAvgF,DewpointLowF,HumidityHigh,HumidityAvg,HumidityLow,PressureMaxIn,PressureMinIn,WindSpeedMaxMPH,WindSpeedAvgMPH,GustSpeedMaxMPH,PrecipitationSumIn
2013-1-1,32.3,29.5,22.7,30.1,26.6,16.9,95,89,78,30.10,29.98,7,1,9,0.00
2013-1-2,29.6,21.7,16.4,18.5,14.6,12.2,86,74,56,30.27,30.08,9,1,13,0.00
2013-1-3,36.4,23.4,9.1,22.2,16.0,7.1,94,75,55,30.27,30.16,13,1,18,0.24
2013-1-4,35.3,29.4,26.8,23.3,21.1,18.3,80,71,57,30.28,30.17,16,3,24,0.04
2013-1-5,39.5,30.8,25.0,25.9,22.3,17.9,80,71,56,30.41,30.17,9,1,13,0.19
2013-1-6,38.7,34.9,30.8,31.2,28.0,24.8,87,76,67,30.22,30.00,10,2,14,0.10
2013-1-7,35.2,30.9,22.5,28.5,25.4,19.8,89,80,68,30.47,30.22,9,1,11,0.04
2013-1-8,48.0,30.4,18.0,30.7,24.1,16.2,96,79,47,30.39,30.28,9,1,12,0.07
2013-1-9,48.2,36.8,26.6,41.3,31.6,24.9,95,82,71,30.50,30.24,12,1,19,0.01
2013-1-10,41.5,34.5,26.0,31.2,28.2,24.5,96,78,64,30.62,30.30,4,0,7,0.00
2013-1-11,53.3,46.5,37.8,51.4,41.4,27.9,98,83,61,30.30,29.96,9,1,10,0.19
2013-1-12,63.1,55.4,45.5,56.5,52.9,44.7,98,92,77,30.07,29.93,6,1,12,0.01
2013-1-13,69.9,61.1,52.8,57.3,54.2,50.2,94,79,61,29.91,29.82,16,3,23,0.11
2013-1-14,57.2,39.4,31.0,55.5,32.4,23.9,94,76,57,30.35,29.85,12,2,24,0.02
2013-1-15,32.9,30.0,25.8,28.3,23.7,21.3,91,77,70,30.40,30.09,7,1,9,0.00
2013-1-16,34.1,32.2,30.6,32.4,30.5,28.3,96,93,88,30.10,29.91,10,1,16,0.19
2013-1-17,34.1,32.2,30.5,29.4,28.3,27.0,91,85,82,30.20,30.03,7,1,13,0.03
2013-1-18,34.4,27.8,17.7,27.3,15.7,8.2,87,61,46,30.52,30.17,14,3,20,0.02
2013-1-19,54.3,44.2,31.4,24.1,19.3,13.5,55,37,25,30.28,29.82,17,5,25,0.08
2013-1-20,46.3,36.3,23.9,30.9,19.5,11.4,64,51,39,30.14,29.76,21,5,30,0.00
2013-1-21,27.0,22.0,12.7,20.0,13.0,1.5,87,68,56,30.11,29.93,19,2,27,0.00
2013-1-22,16.0,10.2,6.3,5.8,0.4,-2.8,76,64,51,30.33,30.09,16,3,22,0.00
2013-1-23,17.1,11.8,5.0,9.8,2.5,-1.1,81,66,50,30.36,30.12,12,1,14,0.00
2013-1-24,25.8,16.3,11.3,13.0,6.7,-1.9,90,67,36,30.59,30.11,11,2,16,0.00
2013-1-25,19.5,15.5,12.0,15.1,9.5,3.8,87,77,64,30.56,30.07,5,1,8,0.00
2013-1-26,28.2,22.5,14.1,22.4,18.1,11.2,89,83,71,30.49,30.14,10,1,13,0.01
2013-1-27,33.8,23.0,9.4,20.7,15.4,7.1,93,74,51,30.58,30.35,6,1,8,0.19
2013-1-28,49.1,40.4,30.3,48.3,38.0,20.0,97,91,66,30.35,30.02,11,2,16,0.53
2013-1-29,65.0,56.2,48.6,55.3,51.2,47.8,98,84,67,30.06,29.75,14,2,20,0.01
2013-1-30,66.6,57.8,48.9,56.7,51.6,44.9,95,81,64,29.77,29.19,16,4,23,1.02
2013-1-31,48.8,28.9,23.0,45.1,22.5,12.9,93,77,57,29.87,29.19,20,5,28,0.02
2013-2-1,23.0,16.0,9.7,20.5,8.2,2.8,90,71,60,30.39,29.83,17,3,18,0.00
2013-2-2,23.6,17.0,7.4,21.1,12.6,2.9,92,83,74,30.37,30.01,14,2,17,0.00
2013-2-3,27.7,23.0,17.8,22.6,19.2,12.8,92,85,73,30.06,29.85,11,2,21,0.03
2013-2-4,27.5,22.2,17.5,24.3,17.5,11.5,93,82,66,30.11,29.89,14,2,14,0.00
2013-2-5,32.0,28.7,26.0,29.3,26.3,23.7,94,91,80,29.96,29.84,6,0,11,0.00
2013-2-6,35.2,27.7,17.8,26.4,22.7,15.4,94,82,58,30.35,29.96,10,1,11,0.00
2013-2-7,45.1,30.5,15.9,30.0,23.5,14.1,94,76,54,30.33,29.99,9,1,11,0.05
2013-2-8,37.7,33.0,26.1,36.1,28.5,21.8,94,84,77,30.16,29.80,19,4,27,0.14
2013-2-9,38.2,26.7,19.5,21.8,18.7,16.8,89,73,45,30.42,30.16,12,2,20,0.01
2013-2-10,51.0,34.6,16.3,28.3,19.9,14.4,93,60,30,30.38,29.98,9,1,12,0.00
2013-2-11,63.1,47.6,37.4,47.9,35.1,24.8,95,66,31,29.98,29.65,30,4,32,0.05
2013-2-12,43.8,35.6,26.2,28.5,25.1,23.1,89,66,50,30.07,29.91,15,2,20,0.00
2013-2-13,40.7,30.2,22.8,31.5,26.2,21.1,95,86,63,29.93,29.69,6,0,8,0.00
2013-2-14,41.8,34.8,27.6,35.1,29.8,25.1,94,83,67,29.97,29.88,12,3,21,0.12
2013-2-15,40.6,35.1,27.6,34.6,28.7,23.1,93,78,59,30.06,29.91,10,2,15,0.00
2013-2-16,32.0,26.0,19.9,23.2,18.4,11.9,88,73,51,30.06,29.94,11,1,12,0.02
2013-2-17,27.0,19.4,13.0,19.1,12.4,5.7,90,75,52,30.30,29.94,14,3,22,0.03
2013-2-18,43.2,26.6,7.6,30.5,15.3,4.6,89,65,41,30.35,29.91,11,2,13,0.03
2013-2-19,45.6,36.8,24.3,38.9,29.0,15.0,89,74,47,29.94,29.67,17,5,28,0.13
2013-2-20,24.1,20.5,18.2,17.5,13.4,10.0,85,74,59,30.25,29.95,18,4,25,0.00
2013-2-21,27.1,21.7,19.2,18.2,15.0,13.1,85,75,61,30.39,30.22,9,2,12,0.01
2013-2-22,37.2,30.5,21.2,34.2,25.5,14.6,94,82,59,30.32,30.00,11,1,15,0.01
2013-2-23,45.2,35.9,27.7,37.3,31.8,25.9,94,85,70,30.02,29.86,7,0,10,0.00
2013-2-24,31.7,29.0,25.3,26.5,23.6,20.1,95,80,64,30.17,29.87,11,1,16,0.00
2013-2-25,44.8,33.4,21.1,28.0,23.2,18.9,94,68,44,30.25,30.07,8,1,11,0.00
2013-2-26,40.2,34.9,28.5,36.1,28.3,21.4,95,78,53,30.08,29.58,14,3,17,0.87
2013-2-27,44.4,39.1,33.4,39.8,36.0,31.1,95,89,73,29.68,29.55,9,2,19,0.21
2013-2-28,34.4,33.1,31.8,32.2,30.5,28.5,94,90,85,29.82,29.62,11,2,13,0.07
2013-3-1,31.6,29.7,26.1,29.8,25.4,20.7,93,84,76,29.99,29.82,10,3,13,0.01
2013-3-2,31.0,26.6,24.7,23.3,21.6,19.8,91,81,68,29.98,29.92,9,2,13,0.01
2013-3-3,28.7,25.9,23.2,23.2,20.2,17.5,91,79,66,30.03,29.94,13,3,17,0.00
2013-3-4,40.3,28.2,21.2,22.7,18.9,16.8,87,69,43,30.15,30.03,11,3,16,0.01
2013-3-5,46.4,33.4,19.1,25.8,18.5,13.1,92,59,26,30.12,29.68,13,2,15,0.00
2013-3-6,44.0,35.6,31.2,33.6,29.6,25.9,95,80,62,30.12,29.69,7,1,15,0.49
2013-3-7,41.7,35.5,32.8,32.1,29.6,27.0,90,79,63,30.29,30.11,12,2,14,0.00
2013-3-8,37.9,32.8,26.6,29.4,26.7,23.8,90,78,69,30.43,30.29,12,3,16,0.00
2013-3-9,55.5,37.7,21.6,32.8,25.8,20.1,96,67,34,30.43,30.18,7,1,9,0.00
2013-3-10,70.3,56.1,41.9,34.8,28.9,22.9,53,36,23,30.18,29.97,10,2,12,0.00
2013-3-11,64.0,55.6,47.2,47.7,34.8,29.9,90,47,29,29.98,29.66,17,3,19,0.20
2013-3-12,46.9,39.7,36.0,43.8,33.9,27.9,92,80,69,29.99,29.74,10,2,19,0.03
2013-3-13,38.0,31.8,26.9,30.5,25.9,18.3,92,79,60,30.15,29.92,21,3,23,0.04
2013-3-14,39.6,30.5,23.8,22.7,19.0,17.0,78,63,42,30.23,30.14,19,4,24,0.00
2013-3-15,50.6,38.4,24.9,36.5,26.8,19.0,84,64,49,30.16,29.82,14,2,20,0.00
2013-3-16,40.8,36.4,32.9,38.0,34.2,29.7,94,91,85,29.97,29.62,8,1,11,0.05
2013-3-17,37.9,32.2,28.5,29.6,24.4,22.4,88,73,55,30.20,29.97,7,1,10,0.00
2013-3-18,40.4,34.3,29.7,35.9,29.9,22.1,94,84,70,30.18,29.70,17,4,18,0.36
2013-3-19,46.3,38.7,29.8,41.4,27.9,16.8,96,67,35,29.97,29.69,27,5,29,0.03
2013-3-20,40.8,32.0,26.0,23.0,18.3,16.0,71,58,37,29.98,29.82,20,3,25,0.00
2013-3-21,31.0,24.8,18.8,20.9,13.3,6.2,81,62,43,29.93,29.86,17,4,19,0.00
2013-3-22,35.0,28.5,23.0,21.3,19.4,17.6,83,69,53,30.04,29.92,10,2,16,0.00
2013-3-23,48.8,32.9,18.3,26.5,21.2,16.2,93,66,35,30.06,30.00,14,2,16,0.00
2013-3-24,46.5,33.8,27.0,29.8,23.2,20.2,89,67,42,30.01,29.53,15,3,19,0.00
2013-3-25,37.6,33.4,30.8,34.3,31.6,29.2,96,93,86,29.75,29.45,8,1,11,0.59
2013-3-26,42.4,35.8,31.5,33.8,31.5,29.5,95,85,67,30.08,29.75,11,2,16,0.23
2013-3-27,44.2,36.0,31.9,33.1,29.7,25.1,95,79,51,30.16,30.07,17,2,21,0.07
2013-3-28,44.9,38.3,34.3,31.0,29.4,28.1,86,70,54,30.27,30.13,11,3,15,0.00
2013-3-29,53.7,43.0,35.2,36.0,27.5,20.7,82,57,31,30.27,30.15,11,1,18,0.00
2013-3-30,57.3,41.9,24.3,30.1,23.3,19.2,91,53,25,30.26,30.02,7,1,11,0.00
2013-3-31,48.5,45.5,39.9,46.2,36.2,21.7,93,72,43,30.02,29.71,10,1,13,0.10
2013-4-1,45.7,41.0,33.2,42.8,28.6,12.6,90,64,32,30.02,29.69,16,4,22,0.04
2013-4-2,42.4,32.9,26.0,22.0,16.5,12.7,81,52,32,30.20,30.01,14,2,20,0.00
2013-4-3,41.9,31.7,22.1,22.2,14.6,9.4,78,51,31,30.43,30.19,18,2,20,0.00
2013-4-4,54.2,37.6,18.6,22.5,14.9,7.0,84,46,16,30.42,29.98,9,1,11,0.00
2013-4-5,57.6,42.6,28.3,33.2,23.8,19.3,74,49,29,30.18,29.93,15,2,21,0.00
2013-4-6,58.4,42.0,23.7,23.8,17.5,10.4,84,44,16,30.29,30.02,10,1,11,0.00
2013-4-7,74.4,61.1,51.7,47.1,36.2,19.0,60,40,27,30.02,29.85,18,4,24,0.00
2013-4-8,74.5,62.6,47.0,50.3,45.1,39.9,83,55,36,30.01,29.86,13,3,21,0.00
2013-4-9,80.5,69.5,54.4,56.3,52.1,48.2,85,55,39,30.06,29.85,15,2,18,0.00
2013-4-10,80.2,68.6,59.1,66.5,57.6,51.0,95,69,49,29.93,29.74,15,2,22,0.58
2013-4-11,75.8,64.8,56.9,60.9,56.8,51.0,96,77,54,29.85,29.55,10,2,15,0.00
2013-4-12,65.0,57.2,45.3,59.3,49.4,33.1,95,76,51,29.83,29.45,17,4,27,0.54
2013-4-13,54.2,46.2,38.2,36.7,33.5,31.3,80,62,47,30.01,29.82,16,3,21,0.00
2013-4-14,63.0,48.9,30.1,37.0,32.2,26.9,89,55,35,30.16,30.00,10,2,12,0.00
2013-4-15,67.9,60.8,54.8,49.7,44.2,35.2,66,55,46,30.07,29.96,15,4,18,0.00
2013-4-16,79.1,64.4,53.9,60.8,53.8,47.3,96,70,48,30.15,29.99,18,2,24,1.37
2013-4-17,67.8,59.3,51.2,56.8,52.8,47.8,97,80,61,30.21,30.06,6,1,10,0.00
2013-4-18,85.5,72.6,60.7,61.4,56.8,53.9,85,60,37,30.08,29.72,18,6,21,0.00
2013-4-19,71.7,59.9,44.0,61.3,48.3,30.0,87,66,53,29.83,29.43,14,5,24,0.18
2013-4-20,49.6,41.9,35.5,31.3,27.0,22.3,78,56,39,30.40,29.83,18,4,30,0.01
2013-4-21,54.4,41.8,26.3,30.0,23.0,16.3,88,51,23,30.60,30.40,8,1,11,0.00
2013-4-22,63.2,51.1,40.4,36.4,26.7,20.3,58,40,23,30.47,30.26,13,3,15,0.00
2013-4-23,71.7,56.2,37.7,42.1,34.3,28.9,79,47,25,30.27,29.93,7,1,12,0.00
2013-4-24,70.2,56.1,39.9,55.9,44.2,34.2,91,66,45,30.14,29.71,19,4,34,0.29
2013-4-25,59.5,46.2,32.1,39.5,33.0,27.9,95,64,32,30.35,30.14,12,2,23,0.01
2013-4-26,63.0,48.5,34.0,41.0,33.4,25.9,97,62,28,30.47,30.34,6,1,10,0.00
2013-4-27,74.5,55.7,33.7,42.4,34.9,30.8,94,53,22,30.39,30.13,11,2,13,0.00
2013-4-28,61.0,56.4,53.7,53.7,46.9,38.8,92,72,44,30.13,29.90,12,2,15,0.19
2013-4-29,63.9,57.1,53.1,57.8,52.4,47.5,92,84,75,30.00,29.90,7,1,12,0.08
2013-4-30,74.2,62.2,51.1,58.7,52.4,49.7,96,72,49,30.16,30.00,11,2,15,0.00
2013-5-1,77.1,64.6,52.2,54.5,46.9,33.2,86,57,31,30.27,30.15,10,2,19,0.00
2013-5-2,79.6,64.7,49.8,50.5,35.9,25.6,63,37,14,30.32,30.16,10,2,14,0.00
2013-5-3,75.2,62.7,46.4,46.9,39.3,32.9,73,44,25,30.22,30.12,13,3,20,0.00
2013-5-4,72.6,60.1,46.2,45.2,39.3,32.8,67,48,28,30.17,30.05,13,3,20,0.00
2013-5-5,75.1,61.1,46.6,41.9,34.1,21.3,78,41,15,30.12,29.98,12,3,17,0.00
2013-5-6,71.1,59.0,43.0,52.8,45.7,35.5,82,62,47,30.06,29.97,13,3,19,0.00
2013-5-7,70.3,61.1,56.0,59.0,54.3,51.6,91,79,56,30.00,29.92,8,1,16,0.09
2013-5-8,77.3,63.5,52.6,55.7,51.4,44.1,96,69,32,29.96,29.85,8,1,11,0.14
2013-5-9,79.5,64.3,52.2,59.0,52.1,45.0,97,68,31,29.95,29.87,10,1,13,0.00
2013-5-10,75.8,62.6,56.3,62.7,57.1,50.9,95,83,59,29.96,29.76,15,2,30,0.42
2013-5-11,60.4,56.3,47.6,59.3,53.5,45.9,96,90,79,29.81,29.73,8,1,12,0.14
2013-5-12,54.1,48.0,37.3,48.6,33.9,26.7,95,60,37,30.04,29.80,16,3,23,0.00
2013-5-13,55.3,44.2,31.3,33.6,27.5,22.7,88,55,31,30.17,30.04,13,2,18,0.00
2013-5-14,61.8,46.6,29.1,40.5,33.8,27.5,96,65,36,30.18,29.89,10,1,11,0.00
2013-5-15,87.4,68.3,49.5,62.2,53.9,39.5,76,62,40,29.89,29.68,18,3,22,0.00
2013-5-16,81.5,70.3,61.5,63.8,56.7,45.3,95,66,29,29.93,29.72,11,1,12,0.18
2013-5-17,82.5,68.3,56.3,63.3,56.6,46.9,98,70,35,30.06,29.92,7,1,10,0.00
2013-5-18,84.6,68.9,52.9,64.3,54.7,44.0,87,62,40,30.09,29.98,10,1,13,0.00
2013-5-19,78.7,68.4,58.3,64.6,60.4,55.9,93,77,58,30.06,29.92,8,1,12,0.02
2013-5-20,86.1,72.7,59.3,68.9,63.8,57.7,97,75,52,29.99,29.86,10,1,14,0.00
2013-5-21,86.9,76.4,66.0,70.1,66.0,63.1,95,73,48,29.91,29.76,11,2,18,0.03
2013-5-22,87.8,72.5,65.1,67.8,62.5,58.9,88,72,44,29.84,29.72,12,3,19,0.04
2013-5-23,75.8,64.4,49.8,63.9,60.3,47.9,96,88,58,29.86,29.72,15,2,23,1.14
2013-5-24,49.8,45.4,40.2,48.0,37.8,30.3,94,76,56,30.28,29.86,16,4,18,0.01
2013-5-25,64.4,47.9,31.2,40.9,34.6,29.9,97,65,32,30.32,30.21,14,2,22,0.00
2013-5-26,69.8,52.5,34.1,42.0,36.1,32.3,95,59,28,30.28,30.19,11,1,17,0.00
2013-5-27,62.4,53.2,38.1,48.4,42.4,36.5,97,69,46,30.26,30.07,7,1,10,0.00
2013-5-28,80.2,66.6,54.1,67.1,58.5,48.2,95,77,54,30.08,29.95,16,2,20,0.12
2013-5-29,86.1,76.2,68.3,64.2,60.7,57.9,74,60,43,30.03,29.96,14,3,19,0.00
2013-5-30,89.4,75.9,60.9,69.4,62.4,58.6,94,66,39,30.13,30.02,8,1,11,0.00
2013-5-31,88.1,76.9,64.8,68.0,63.4,60.7,95,66,41,30.06,29.93,11,2,17,0.00
2013-6-1,86.2,77.3,67.2,68.1,64.8,61.2,91,67,51,29.96,29.75,14,3,19,0.11
2013-6-2,82.1,74.4,66.6,66.5,62.5,57.5,91,68,48,29.81,29.73,11,2,19,0.03
2013-6-3,69.4,63.2,51.4,59.4,53.0,39.7,84,70,53,30.03,29.81,10,1,12,0.00
2013-6-4,75.7,59.3,40.6,51.7,44.3,38.7,96,61,33,30.14,30.03,8,1,12,0.00
2013-6-5,83.2,67.3,49.2,63.9,53.6,46.0,90,63,43,30.11,29.88,15,1,15,0.00
2013-6-6,70.3,65.7,62.3,66.0,62.3,57.8,97,89,65,29.89,29.71,11,2,13,0.93
2013-6-7,65.9,62.4,58.7,62.3,59.8,54.2,98,91,82,29.81,29.70,8,2,13,0.00
2013-6-8,72.6,62.6,56.3,59.4,54.7,52.7,92,76,54,30.07,29.82,7,1,11,0.00
2013-6-9,84.5,70.0,54.6,66.0,59.5,53.3,97,72,43,30.14,29.97,7,1,12,0.00
2013-6-10,75.0,70.0,66.9,70.2,66.0,63.1,94,87,75,29.97,29.73,10,1,16,0.46
2013-6-11,80.1,69.8,62.3,67.0,63.0,58.8,94,80,57,29.84,29.74,11,2,17,0.00
2013-6-12,85.0,74.3,63.7,70.3,65.9,61.6,94,76,51,29.86,29.69,11,1,11,0.00
2013-6-13,75.1,67.6,61.2,71.1,63.2,54.6,95,86,71,29.75,29.45,14,3,22,0.70
2013-6-14,75.8,63.5,54.8,61.2,55.8,52.6,95,78,46,30.02,29.74,8,1,13,0.00
2013-6-15,79.6,66.1,49.5,57.0,52.5,45.4,98,66,33,30.10,29.96,9,1,11,0.00
2013-6-16,74.1,67.7,61.7,68.1,62.4,55.0,94,83,66,29.98,29.85,10,2,14,0.32
2013-6-17,85.2,73.9,65.2,67.5,63.0,57.4,95,72,42,29.93,29.84,8,1,10,0.00
2013-6-18,81.1,68.7,62.4,68.1,62.6,58.5,94,82,57,29.91,29.79,9,0,16,0.17
2013-6-19,78.9,66.2,55.2,58.8,51.8,43.5,90,64,30,30.11,29.91,9,1,11,0.00
2013-6-20,84.4,66.6,48.8,58.3,52.1,47.7,98,65,32,30.19,30.11,6,0,9,0.00
2013-6-21,86.5,70.8,53.9,63.8,57.2,52.6,98,67,36,30.21,30.10,9,1,10,0.00
2013-6-22,88.3,75.0,60.8,69.8,64.2,58.0,96,71,49,30.15,30.01,9,1,13,0.00
2013-6-23,88.7,78.2,66.8,71.2,66.8,63.8,95,70,45,30.10,29.99,10,1,16,0.00
2013-6-24,89.8,79.1,66.0,69.0,65.5,63.5,94,66,43,30.08,29.94,9,2,16,0.00
2013-6-25,90.3,77.8,66.9,70.0,66.6,58.7,94,70,47,29.99,29.81,12,2,19,0.10
2013-6-26,84.5,73.6,65.5,70.4,67.1,64.6,97,82,57,29.92,29.76,9,1,13,1.57
2013-6-27,76.1,70.9,66.7,70.9,68.0,64.0,97,91,81,29.76,29.58,13,1,13,0.44
2013-6-28,78.3,68.8,63.2,69.8,65.2,61.5,98,89,72,29.61,29.44,9,1,16,0.14
2013-6-29,80.3,68.7,59.1,70.1,62.6,58.1,98,82,54,29.65,29.50,10,1,17,0.11
2013-6-30,84.5,70.6,61.0,71.2,64.8,60.2,98,83,55,29.80,29.64,8,1,22,1.09
2013-7-1,81.2,71.7,65.6,69.9,66.4,64.1,97,84,64,29.90,29.76,8,1,10,0.10
2013-7-2,84.0,74.2,65.8,71.3,67.7,64.6,97,81,61,30.01,29.88,7,1,14,0.19
2013-7-3,86.8,77.2,69.9,72.0,67.6,65.2,86,73,53,30.11,30.00,7,1,13,0.00
2013-7-4,86.7,76.8,69.2,70.7,68.4,65.8,95,77,52,30.16,30.06,8,1,12,0.05
2013-7-5,84.8,76.2,68.4,71.7,68.2,66.8,97,78,59,30.11,30.04,12,2,17,0.00
2013-7-6,89.3,77.9,68.4,73.1,69.7,67.4,98,78,53,30.12,29.96,7,1,11,0.08
2013-7-7,77.9,73.4,69.5,70.6,68.2,66.7,93,84,72,30.05,29.95,9,1,14,0.07
2013-7-8,85.2,74.1,63.5,70.2,66.3,61.4,94,78,57,30.08,29.99,7,1,12,0.17
2013-7-9,84.8,73.0,67.5,74.9,69.5,65.6,97,89,69,30.06,29.91,12,2,16,0.76
2013-7-10,86.2,72.2,65.4,78.3,69.4,64.2,98,91,68,29.96,29.76,12,2,25,2.25
2013-7-11,78.5,70.3,63.1,66.4,62.2,56.4,97,78,52,29.95,29.84,8,1,10,0.00
2013-7-12,77.4,66.3,57.1,67.4,61.3,55.2,96,85,63,30.07,29.95,6,0,9,0.02
2013-7-13,84.3,73.2,61.4,69.8,65.1,59.8,96,77,56,30.18,30.05,7,1,8,0.00
2013-7-14,90.3,79.7,70.9,71.1,68.0,66.3,88,69,48,30.24,30.16,9,1,14,0.00
2013-7-15,91.9,79.7,67.8,73.6,69.1,66.1,96,73,46,30.28,30.17,7,1,8,0.00
2013-7-16,92.2,77.7,70.6,77.3,71.9,69.0,96,84,52,30.25,30.17,10,0,25,0.05
2013-7-17,91.6,78.7,70.0,79.9,73.5,69.1,98,85,59,30.24,30.10,7,0,12,0.01
2013-7-18,95.0,82.2,70.8,78.6,73.8,69.9,98,78,50,30.13,29.96,9,1,13,0.00
2013-7-19,93.8,80.4,72.8,76.3,72.4,67.8,92,78,50,29.97,29.80,8,2,20,0.00
2013-7-20,82.2,75.2,70.6,73.1,69.2,66.8,95,82,67,29.87,29.79,12,2,15,0.16
2013-7-21,86.1,73.9,68.2,72.3,68.6,66.2,96,85,58,29.92,29.84,7,1,10,0.03
2013-7-22,81.5,71.1,64.8,74.2,68.6,64.0,99,92,74,29.90,29.71,6,0,15,0.58
2013-7-23,84.3,72.2,64.5,70.3,66.7,62.1,97,85,55,29.74,29.65,10,2,19,0.68
2013-7-24,74.7,66.2,60.3,64.7,57.6,52.7,98,75,52,29.95,29.71,9,1,11,0.01
2013-7-25,78.7,64.7,52.3,57.8,53.2,47.7,95,69,36,30.05,29.95,7,1,11,0.01
2013-7-26,81.5,67.4,52.3,62.7,56.3,51.2,98,71,41,30.06,29.96,7,1,10,0.06
2013-7-27,72.8,65.9,60.1,68.5,62.8,57.7,96,90,79,29.96,29.80,7,1,11,0.78
2013-7-28,77.5,68.0,57.1,65.2,60.5,55.1,98,79,49,29.99,29.81,10,2,16,0.32
2013-7-29,75.8,63.7,51.4,58.8,54.4,50.3,98,74,49,30.16,29.99,11,1,14,0.01
2013-7-30,79.1,65.5,52.3,63.5,56.7,51.2,98,76,47,30.21,30.11,8,0,9,0.00
2013-7-31,79.0,66.9,56.5,66.5,61.4,55.5,98,84,58,30.12,29.92,7,1,9,0.01
2013-8-1,83.0,71.4,64.1,68.0,63.5,59.6,96,78,48,29.92,29.81,8,2,15,0.03
2013-8-2,79.4,68.9,57.9,64.1,58.7,52.3,98,73,43,29.94,29.85,14,2,18,0.00
2013-8-3,78.0,68.5,58.3,67.4,62.6,55.8,96,82,59,29.95,29.88,11,1,13,0.17
2013-8-4,77.4,64.6,53.9,61.0,55.8,52.8,98,76,45,30.06,29.95,10,1,15,0.01
2013-8-5,77.2,63.6,51.0,60.3,54.2,49.9,98,74,43,30.10,29.99,6,0,9,0.00
2013-8-6,82.4,68.6,54.3,60.9,56.5,52.9,97,69,39,30.00,29.93,7,1,8,0.00
2013-8-7,84.2,71.0,61.7,73.0,65.4,59.6,97,83,61,29.94,29.87,7,1,13,0.05
2013-8-8,86.0,74.7,66.7,74.2,69.4,65.4,97,85,65,29.93,29.84,10,1,12,0.00
2013-8-9,78.8,73.6,66.3,75.1,70.2,64.8,96,89,73,29.96,29.83,10,1,11,0.19
2013-8-10,83.7,71.5,62.0,67.1,63.5,61.1,98,78,52,30.05,29.96,6,0,9,0.01
2013-8-11,84.4,71.3,60.9,70.1,63.3,56.7,97,77,51,30.08,29.97,5,0,8,0.17
2013-8-12,84.7,74.0,63.5,70.1,65.2,62.2,99,77,48,30.01,29.83,8,1,11,0.01
2013-8-13,81.7,71.7,59.0,70.5,62.8,49.9,93,75,53,29.93,29.74,12,2,19,0.00
2013-8-14,70.6,58.4,48.8,55.5,51.0,47.4,97,78,51,30.12,29.93,10,1,13,0.00
2013-8-15,76.6,60.2,46.1,57.9,49.7,45.0,98,73,36,30.18,30.07,4,0,9,0.00
2013-8-16,81.6,65.3,51.9,59.9,54.1,50.5,97,71,40,30.13,30.08,6,0,8,0.00
2013-8-17,79.0,66.5,53.8,61.3,55.7,50.3,98,71,39,30.21,30.14,8,1,12,0.00
2013-8-18,72.4,66.8,62.3,65.8,61.5,56.6,97,83,71,30.18,30.10,5,0,8,0.02
2013-8-19,80.9,69.5,61.9,68.8,64.9,60.4,98,86,58,30.11,30.01,7,0,11,0.43
2013-8-20,84.4,69.5,55.9,66.5,60.5,55.2,99,76,45,30.16,30.06,5,0,7,0.02
2013-8-21,86.2,72.2,57.7,68.4,62.5,56.8,99,75,42,30.16,30.01,8,1,9,0.00
2013-8-22,83.8,73.3,65.8,72.7,67.6,62.9,96,83,58,30.06,29.92,8,1,17,0.32
2013-8-23,83.2,72.1,66.7,70.2,63.7,54.9,98,78,44,30.10,29.93,7,0,11,0.02
2013-8-24,83.5,69.0,55.1,64.7,58.5,53.7,97,72,44,30.25,30.10,6,0,8,0.00
2013-8-25,84.5,69.7,55.5,65.5,59.3,54.6,98,73,39,30.33,30.19,9,1,12,0.00
2013-8-26,86.1,72.6,59.7,66.8,62.5,57.7,94,73,49,30.21,29.98,10,1,15,0.00
2013-8-27,82.1,74.7,69.1,72.5,69.3,66.7,95,84,65,29.98,29.88,9,1,12,0.02
2013-8-28,81.1,73.0,69.2,75.4,70.9,68.0,98,93,81,29.90,29.77,7,1,10,0.14
2013-8-29,87.5,75.4,67.6,72.7,68.7,65.8,98,82,53,29.98,29.86,5,0,7,0.01
2013-8-30,88.4,74.7,62.9,72.2,67.8,62.0,99,81,56,29.95,29.78,9,1,12,0.01
2013-8-31,88.8,76.9,70.7,72.7,69.5,67.9,92,79,53,29.80,29.71,7,1,15,0.02
2013-9-1,80.0,73.6,69.7,72.0,69.7,67.9,95,88,72,29.79,29.72,8,1,10,0.00
2013-9-2,85.6,73.8,64.6,71.9,68.8,63.2,96,85,58,29.79,29.67,14,1,16,0.06
2013-9-3,74.1,65.0,56.7,63.3,58.5,54.0,98,81,53,30.00,29.78,10,1,15,0.00
2013-9-4,79.5,64.1,50.6,60.5,55.3,49.8,99,76,45,30.10,30.00,8,1,14,0.01
2013-9-5,76.7,66.1,56.7,61.4,54.7,47.3,95,69,43,30.17,30.02,10,2,14,0.01
2013-9-6,77.4,59.5,44.4,52.6,46.6,40.4,98,67,30,30.24,30.10,7,0,11,0.00
2013-9-7,81.5,64.2,45.7,57.3,50.9,44.6,98,67,33,30.10,29.91,7,1,11,0.00
2013-9-8,82.2,70.9,61.8,68.6,61.6,56.9,88,73,58,30.01,29.87,8,1,11,0.00
2013-9-9,82.4,68.3,56.4,73.3,63.6,54.8,97,86,66,30.06,29.95,8,1,11,0.02
2013-9-10,90.8,78.5,68.6,76.3,71.6,67.4,97,81,59,30.07,30.00,13,2,19,0.00
2013-9-11,91.0,76.9,72.4,76.4,71.8,67.9,93,85,56,30.09,29.95,10,1,17,0.03
2013-9-12,77.0,70.6,61.4,71.2,67.8,60.0,97,91,81,29.95,29.75,8,1,16,0.02
2013-9-13,67.7,59.2,52.7,61.1,53.6,46.5,97,82,63,30.00,29.76,12,2,16,0.01
2013-9-14,67.6,55.7,47.4,48.7,46.2,42.1,94,73,41,30.15,30.00,7,1,9,0.00
2013-9-15,70.4,56.9,43.0,55.7,49.6,42.2,98,79,51,30.17,30.04,8,1,12,0.00
2013-9-16,71.6,60.7,52.7,57.8,54.2,48.5,97,80,53,30.28,30.05,9,1,13,0.01
2013-9-17,71.6,56.6,45.0,55.7,47.6,43.1,96,74,45,30.37,30.23,8,1,10,0.01
2013-9-18,75.3,59.4,43.8,55.4,49.1,42.4,97,71,45,30.24,30.08,8,1,8,0.00
2013-9-19,78.8,66.8,59.3,64.5,59.8,54.9,96,80,54,30.11,29.98,4,0,8,0.00
2013-9-20,80.1,69.4,58.0,69.3,64.8,56.9,98,86,68,30.00,29.78,8,2,13,0.00
2013-9-21,69.7,64.0,56.2,67.1,61.7,55.2,98,93,85,29.79,29.63,9,1,12,0.01
2013-9-22,64.2,56.3,52.3,55.2,50.2,45.5,98,81,56,30.00,29.76,9,1,13,0.01
2013-9-23,59.4,52.5,42.5,48.5,44.9,41.2,95,76,57,30.13,29.99,8,1,9,0.00
2013-9-24,71.4,53.0,38.0,50.5,44.2,37.0,98,76,39,30.11,29.95,7,0,8,0.00
2013-9-25,77.8,57.8,43.9,56.6,49.0,42.8,98,76,39,29.97,29.85,4,0,9,0.00
2013-9-26,79.0,61.0,46.7,55.5,50.1,45.5,98,72,33,30.05,29.91,5,0,8,0.01
2013-9-27,76.8,59.4,44.9,58.5,50.8,44.1,98,77,43,30.17,30.05,5,0,9,0.00
2013-9-28,74.0,60.3,47.8,57.5,51.7,46.9,98,76,47,30.23,30.12,7,1,10,0.00
2013-9-29,76.6,62.2,50.8,59.6,53.5,48.1,93,75,52,30.12,29.97,6,1,9,0.27
2013-9-30,71.9,61.4,52.8,63.3,57.4,51.5,97,87,68,30.02,29.95,7,0,10,0.02
2013-10-1,79.4,66.3,57.6,63.6,59.0,56.0,97,79,52,30.05,29.96,9,1,14,0.00
2013-10-2,81.6,67.8,57.5,66.3,60.9,56.1,96,80,56,30.06,29.99,7,1,14,0.00
2013-10-3,77.5,67.0,57.9,71.9,63.4,57.1,98,89,69,30.06,29.97,7,0,10,0.25
2013-10-4,82.7,69.9,62.0,70.3,65.3,61.0,98,87,55,30.06,29.98,8,1,14,0.24
2013-10-5,83.6,70.2,63.8,70.0,66.1,63.2,98,88,60,30.05,29.94,15,0,15,0.07
2013-10-6,84.8,73.8,65.2,68.7,64.1,59.0,97,74,47,29.94,29.70,9,2,15,0.00
2013-10-7,71.9,57.4,47.7,60.6,49.7,43.7,95,76,56,30.10,29.65,13,2,22,0.38
2013-10-8,67.5,52.1,39.9,51.3,44.9,38.8,98,79,45,30.29,30.10,7,0,10,0.00
2013-10-9,71.2,49.2,38.8,51.0,42.2,38.0,98,81,36,30.32,30.22,7,0,11,0.00
2013-10-10,73.7,57.6,44.9,52.2,44.8,40.6,91,65,35,30.22,30.07,8,1,8,0.00
2013-10-11,61.3,56.4,52.4,57.5,52.4,47.1,94,86,74,30.07,30.02,5,0,8,0.06
2013-10-12,74.6,63.2,54.0,63.8,57.0,51.0,94,81,65,30.12,30.03,6,0,9,0.00
2013-10-13,70.6,63.1,56.4,61.5,57.6,53.9,93,83,70,30.22,30.11,5,0,9,0.01
2013-10-14,62.4,59.5,57.6,58.0,56.9,55.7,94,91,84,30.27,30.19,8,0,9,0.02
2013-10-15,70.9,61.2,49.6,62.1,55.9,48.8,98,84,69,30.19,29.94,6,1,10,0.00
2013-10-16,63.0,59.8,56.2,60.2,56.7,53.6,95,90,80,29.95,29.83,11,1,12,0.37
2013-10-17,62.4,55.0,49.1,60.0,51.6,47.5,96,89,76,29.88,29.66,10,1,14,0.59
2013-10-18,63.2,51.8,43.6,47.8,43.6,40.6,94,76,47,30.01,29.87,11,2,19,0.00
2013-10-19,53.8,45.7,38.3,47.5,42.0,37.3,98,87,73,29.96,29.74,10,1,16,0.06
2013-10-20,58.9,47.3,38.3,42.7,38.3,36.3,94,73,47,30.04,29.93,13,2,23,0.01
2013-10-21,67.8,53.3,38.6,42.0,37.4,34.8,90,59,31,30.05,29.83,13,2,17,0.00
2013-10-22,56.9,47.7,39.6,48.0,36.5,28.3,93,67,40,29.94,29.81,13,1,17,0.21
2013-10-23,43.1,40.0,35.5,39.8,36.1,32.0,93,86,67,29.93,29.75,7,1,17,0.14
2013-10-24,46.8,38.4,31.6,34.4,31.8,28.2,94,79,51,30.15,29.92,12,1,18,0.00
2013-10-25,50.4,38.6,30.5,36.2,30.9,28.1,94,76,46,30.34,30.15,11,1,14,0.01
2013-10-26,50.2,41.4,31.1,32.8,28.3,24.9,85,62,40,30.25,29.89,20,3,25,0.00
2013-10-27,55.4,42.0,31.0,37.6,32.3,29.1,96,71,40,30.10,29.98,10,1,14,0.00
2013-10-28,61.9,42.5,28.1,44.2,33.4,27.1,98,75,35,30.29,30.10,6,0,8,0.01
2013-10-29,61.6,42.3,31.1,43.0,36.4,29.8,98,82,43,30.38,30.26,5,0,7,0.00
2013-10-30,66.5,49.7,42.3,53.6,44.1,39.6,93,82,51,30.26,30.08,6,0,10,0.00
2013-10-31,68.0,61.6,56.8,58.3,56.5,53.6,94,84,63,30.08,29.44,21,3,21,0.18
2013-11-1,68.8,59.1,51.5,59.3,48.7,43.2,91,69,48,29.67,29.30,20,4,32,0.13
2013-11-2,53.8,48.8,42.9,45.4,42.5,40.3,92,79,64,29.94,29.63,13,2,16,0.04
2013-11-3,50.3,41.6,31.6,41.0,32.9,24.5,92,72,50,30.45,29.94,9,1,11,0.00
2013-11-4,47.4,37.0,26.6,26.4,24.2,21.4,87,62,39,30.55,30.43,8,1,11,0.00
2013-11-5,59.6,46.9,36.0,35.1,30.7,25.9,76,54,37,30.51,30.32,6,1,9,0.00
2013-11-6,71.3,56.9,38.0,56.2,44.8,30.2,93,66,47,30.33,29.90,14,2,19,0.07
2013-11-7,57.2,45.7,38.1,55.7,39.3,25.6,96,79,54,30.11,29.83,11,2,25,0.74
2013-11-8,46.1,37.4,27.1,31.1,27.9,23.6,92,70,44,30.30,30.08,16,2,17,0.00
2013-11-9,58.5,43.6,26.0,33.0,26.0,22.0,94,56,26,30.29,29.96,20,3,22,0.00
2013-11-10,52.9,44.1,33.1,36.8,31.8,27.6,80,62,42,30.27,29.95,18,2,24,0.00
2013-11-11,49.8,39.1,28.2,38.5,29.1,25.6,94,70,41,30.27,30.04,13,2,17,0.02
2013-11-12,37.0,30.9,27.0,32.0,24.8,19.1,94,79,51,30.49,30.10,13,2,17,0.10
2013-11-13,39.3,29.4,23.2,25.6,22.2,19.4,90,75,47,30.55,30.39,10,2,14,0.02
2013-11-14,50.9,37.3,25.4,25.0,20.8,18.4,80,54,30,30.39,30.18,13,2,16,0.00
2013-11-15,57.4,45.5,33.0,35.9,25.0,20.5,64,46,25,30.22,30.12,11,2,17,0.00
2013-11-16,60.2,51.6,36.6,49.2,43.2,34.5,96,74,55,30.22,30.01,9,1,12,0.00
2013-11-17,60.7,57.0,53.2,58.4,52.8,46.9,95,86,69,30.01,29.50,11,3,22,0.67
2013-11-18,57.7,48.8,38.4,49.5,35.1,25.9,78,60,41,30.04,29.58,16,4,25,0.00
2013-11-19,38.4,34.7,25.7,27.6,24.9,22.6,89,67,58,30.42,30.04,11,2,19,0.00
2013-11-20,49.9,36.4,24.4,25.6,18.7,11.1,89,54,23,30.49,30.36,13,2,17,0.00
2013-11-21,56.1,44.6,32.9,39.9,29.7,17.3,69,56,45,30.43,30.21,6,0,8,0.00
2013-11-22,52.9,48.9,36.6,51.8,45.5,32.2,96,88,67,30.23,30.03,13,2,21,0.18
2013-11-23,40.7,31.5,20.2,32.2,23.2,8.6,86,72,50,30.36,30.14,18,4,24,0.00
2013-11-24,25.8,19.5,13.4,14.4,11.0,7.1,81,70,48,30.57,30.36,16,3,22,0.00
2013-11-25,36.4,25.7,13.4,21.7,10.8,6.1,80,56,30,30.53,30.24,8,2,21,0.00
2013-11-26,36.2,32.5,30.9,32.4,30.6,20.2,97,93,53,30.25,29.74,8,1,15,0.81
2013-11-27,32.5,28.3,22.7,31.5,24.9,17.0,96,87,75,30.14,29.73,18,4,22,0.03
2013-11-28,31.1,24.8,17.0,21.5,17.5,12.5,84,74,55,30.45,30.14,10,1,14,0.05
2013-11-29,37.9,28.8,21.1,24.4,21.0,18.6,93,73,51,30.67,30.44,6,0,9,0.08
2013-11-30,38.9,29.9,23.6,25.4,21.9,18.5,87,73,54,30.64,30.24,6,1,9,0.03
2013-12-1,45.0,38.2,27.1,31.9,28.7,23.8,90,69,54,30.24,29.98,8,1,13,0.01
2013-12-2,51.1,41.3,36.9,37.3,33.6,30.5,89,74,58,29.98,29.82,7,0,9,0.01
2013-12-3,56.7,42.7,36.4,43.3,37.8,34.3,96,84,58,29.91,29.84,8,0,8,0.02
2013-12-4,58.8,47.8,35.3,48.0,42.0,33.8,96,81,63,29.99,29.86,7,1,11,0.00
2013-12-5,62.2,55.4,39.2,58.0,50.9,37.3,97,85,72,30.03,29.83,9,2,17,0.83
2013-12-6,39.2,33.2,28.5,37.2,31.4,26.7,95,93,89,30.29,30.00,8,1,13,0.26
2013-12-7,35.2,26.7,18.3,27.2,21.2,14.3,94,80,60,30.61,30.28,8,1,14,0.15
2013-12-8,30.5,23.6,18.1,29.2,19.8,13.6,95,85,77,30.61,30.09,8,1,11,0.00
2013-12-9,37.6,34.1,29.6,36.7,31.2,24.1,97,89,78,30.15,29.98,11,2,19,0.27
2013-12-10,30.5,26.1,21.5,24.9,18.6,10.4,92,74,49,30.28,30.05,16,2,23,0.04
2013-12-11,29.8,22.5,18.1,22.6,14.5,12.3,88,71,55,30.39,30.25,12,2,18,0.00
2013-12-12,24.3,19.1,11.5,14.6,7.7,4.6,80,62,48,30.50,30.28,13,2,18,0.00
2013-12-13,37.4,26.3,19.9,22.4,14.4,6.3,79,61,46,30.29,30.22,13,1,13,0.00
2013-12-14,37.0,32.2,28.1,36.0,28.2,20.4,97,85,66,30.26,29.66,8,1,13,0.42
2013-12-15,37.6,29.6,20.7,36.8,25.6,11.7,97,85,65,30.05,29.63,23,4,25,0.07
2013-12-16,25.0,22.1,19.0,21.8,16.0,11.9,88,77,68,30.20,30.05,8,1,17,0.00
2013-12-17,35.2,30.0,24.7,31.3,26.4,21.8,94,86,71,30.06,29.96,9,1,13,0.08
2013-12-18,29.4,26.3,21.8,23.8,21.2,17.0,89,81,70,30.22,30.05,10,2,15,0.00
2013-12-19,52.5,39.1,25.2,35.7,27.7,19.8,84,65,45,30.13,30.03,12,2,22,0.04
2013-12-20,55.4,50.4,38.0,49.6,39.0,27.7,90,67,44,30.03,29.87,14,3,20,0.02
2013-12-21,60.4,57.4,53.4,58.7,54.4,48.9,96,90,80,29.87,29.61,12,3,18,0.62
2013-12-22,68.1,59.4,53.5,60.3,54.6,47.2,94,84,72,29.92,29.51,18,4,25,0.19
2013-12-23,53.5,38.6,30.5,47.6,34.0,21.3,95,83,68,30.28,29.92,13,2,16,0.07
2013-12-24,30.5,23.4,13.9,24.1,15.5,8.1,89,72,54,30.55,30.23,13,3,20,0.02
2013-12-25,26.5,19.4,10.5,23.5,13.0,7.2,92,77,62,30.55,30.26,9,0,10,0.00
2013-12-26,37.3,30.0,21.9,28.2,23.2,16.7,93,77,56,30.37,30.16,17,2,26,0.10
2013-12-27,43.1,32.7,21.6,28.7,23.3,17.0,86,69,53,30.38,30.27,12,1,12,0.01
2013-12-28,54.5,42.8,34.8,32.0,26.9,22.1,61,54,40,30.27,30.05,14,3,17,0.00
2013-12-29,43.0,40.5,39.1,40.5,35.1,24.2,96,83,49,30.05,29.66,11,1,16,0.60
2013-12-30,39.7,26.6,21.9,37.5,22.2,16.1,92,83,76,30.20,29.83,16,2,20,0.01
2013-12-31,25.3,23.6,21.6,21.6,18.3,15.1,88,80,70,30.34,30.10,14,2,21,0.00
2014-1-1,38.8,29.4,24.3,28.4,23.0,18.8,83,77,62,30.35,30.07,7,1,10,0.02
2014-1-2,29.8,24.5,11.1,26.9,21.2,7.0,93,87,82,30.07,29.70,10,1,16,0.00